EW7349 Weather Reports


time (UTC)temp
C
wind
direction
speed
KPH
gust
KPH
rain 1hr
cm
rain 24hr
cm
rain mn
cm
humidity
%
barometer
mb
20260508200231 23 229 1.6 9.7 0.00 0.00 0.00 30 1011.8
20260508195726 23 282 1.6 9.7 0.00 0.00 0.00 30 1011.9
20260508195227 23 139 3.2 9.7 0.00 0.00 0.00 30 1012.0
20260508194727 22 63 3.2 12.9 0.00 0.00 0.00 31 1012.0
20260508194452 22 221 3.2 12.9 0.00 0.00 0.00 31 1012.2
20260508193946 22 62 3.2 9.7 0.00 0.00 0.00 33 1012.2
20260508193226 23 62 3.2 12.9 0.00 0.00 0.00 34 1012.2
20260508192725 23 219 3.2 12.9 0.00 0.00 0.00 31 1012.4
20260508192226 22 40 3.2 14.5 0.00 0.00 0.00 33 1012.4
20260508191947 22 355 3.2 14.5 0.00 0.00 0.00 30 1012.4
20260508191226 23 325 3.2 14.5 0.00 0.00 0.00 30 1012.4
20260508190728 23 133 1.6 8.0 0.00 0.00 0.00 34 1012.5
20260508190715 22 303 3.2 12.9 0.00 0.00 0.00 33 1012.6
20260508185726 22 282 3.2 12.9 0.00 0.00 0.00 31 1012.8
20260508185226 22 231 3.2 12.9 0.00 0.00 0.00 33 1012.8
20260508184725 22 272 3.2 12.9 0.00 0.00 0.00 33 1013.0
20260508184221 22 274 3.2 14.5 0.00 0.00 0.00 32 1013.2
20260508183723 22 241 3.2 14.5 0.00 0.00 0.00 33 1013.4
20260508183219 22 276 3.2 14.5 0.00 0.00 0.00 36 1013.5
20260508182943 22 259 3.2 11.3 0.00 0.00 0.00 35 1013.4
20260508182221 22 52 1.6 11.3 0.00 0.00 0.00 34 1013.4
20260508181720 22 230 1.6 9.7 0.00 0.00 0.00 34 1013.2
20260508181221 22 238 3.2 12.9 0.00 0.00 0.00 36 1013.5
20260508180720 22 73 3.2 12.9 0.00 0.00 0.00 34 1013.6
20260508180215 21 147 3.2 11.3 0.00 0.00 0.00 36 1013.7
20260508175716 21 147 3.2 11.3 0.00 0.00 0.00 36 1013.8
20260508175218 22 289 3.2 11.3 0.00 0.00 0.00 37 1013.9
20260508174715 21 115 4.8 16.1 0.00 0.00 0.00 37 1013.8
20260508174212 21 202 4.8 16.1 0.00 0.00 0.00 37 1014.0
20260508173711 22 317 3.2 9.7 0.00 0.00 0.00 34 1013.9
20260508173209 21 46 1.6 11.3 0.00 0.00 0.00 37 1013.9
20260508172708 21 209 1.6 11.3 0.00 0.00 0.00 35 1014.0
20260508172207 22 153 3.2 12.9 0.00 0.00 0.00 37 1014.0
20260508171709 21 211 3.2 12.9 0.00 0.00 0.00 36 1014.1
20260508171208 20 204 3.2 12.9 0.00 0.00 0.00 37 1014.2
20260508170705 21 304 3.2 12.9 0.00 0.00 0.00 38 1014.2
20260508170207 20 219 3.2 12.9 0.00 0.00 0.00 34 1014.3
20260508165704 20 310 3.2 14.5 0.00 0.00 0.00 38 1014.3
20260508165205 20 325 3.2 14.5 0.00 0.00 0.00 37 1014.5
20260508164705 20 248 3.2 9.7 0.00 0.00 0.00 37 1014.4
20260508164203 20 17 3.2 14.5 0.00 0.00 0.00 37 1014.7
20260508163923 20 257 3.2 14.5 0.00 0.00 0.00 37 1014.6
20260508163204 20 340 3.2 12.9 0.00 0.00 0.00 38 1014.8
20260508162658 19 304 3.2 12.9 0.00 0.00 0.00 40 1014.9
20260508162422 19 25 4.8 12.9 0.00 0.00 0.00 39 1015.0
20260508161645 19 265 3.2 12.9 0.00 0.00 0.00 40 1015.0
20260508161139 18 213 3.2 9.7 0.00 0.00 0.00 43 1015.1
20260508160634 19 0 3.2 12.9 0.00 0.00 0.00 39 1015.1
20260508160128 18 53 4.8 12.9 0.00 0.00 0.00 40 1015.3
20260508155622 18 196 3.2 12.9 0.00 0.00 0.00 41 1015.2
20260508155603 18 331 3.2 12.9 0.00 0.00 0.00 40 1015.3
20260508154611 18 299 3.2 8.0 0.00 0.00 0.00 40 1015.3
20260508154106 18 355 3.2 9.7 0.00 0.00 0.00 42 1015.5
20260508153558 18 5 3.2 12.9 0.00 0.00 0.00 40 1015.4
20260508153052 18 275 3.2 12.9 0.00 0.00 0.00 42 1015.5
20260508152547 17 42 3.2 12.9 0.00 0.00 0.00 45 1015.5
20260508152040 17 252 4.8 12.9 0.00 0.00 0.00 43 1015.6
20260508151535 17 67 3.2 12.9 0.00 0.00 0.00 43 1015.5
20260508151029 17 135 1.6 11.3 0.00 0.00 0.00 47 1015.6
20260508150522 16 306 3.2 11.3 0.00 0.00 0.00 46 1015.6
20260508150017 16 241 3.2 6.4 0.00 0.00 0.00 47 1015.6
20260508145518 16 252 1.6 6.4 0.00 0.00 0.00 45 1015.8
20260508145018 16 271 1.6 4.8 0.00 0.00 0.00 48 1015.8
20260508144517 15 175 3.2 6.4 0.00 0.00 0.00 48 1015.8
20260508144018 15 255 3.2 9.7 0.00 0.00 0.00 49 1015.9
20260508143518 15 39 3.2 9.7 0.00 0.00 0.00 46 1015.9
20260508143020 15 225 1.6 6.4 0.00 0.00 0.00 53 1015.9
20260508142517 15 227 1.6 6.4 0.00 0.00 0.00 52 1015.8
20260508142014 15 192 1.6 4.8 0.00 0.00 0.00 50 1015.8
20260508141720 14 0 0.0 6.4 0.00 0.00 0.00 53 1016.0
20260508141608 15 229 1.6 6.4 0.00 0.00 0.00 51 1015.9
20260508140510 13 248 0.0 6.4 0.00 0.00 0.00 57 1016.0
20260508140010 13 141 1.6 6.4 0.00 0.00 0.00 57 1016.0
20260508135508 13 183 1.6 8.0 0.00 0.00 0.00 57 1016.0
20260508135007 12 33 1.6 8.0 0.00 0.00 0.00 59 1016.0
20260508134725 12 65 1.6 6.4 0.00 0.00 0.00 61 1016.0
20260508134229 12 61 1.6 6.4 0.00 0.00 0.00 61 1016.1
20260508133508 11 294 1.6 6.4 0.00 0.00 0.00 65 1016.1
20260508133009 11 238 1.6 6.4 0.00 0.00 0.00 65 1016.2
20260508132505 11 177 1.6 6.4 0.00 0.00 0.00 68 1016.2
20260508131958 11 216 1.6 6.4 0.00 0.00 0.00 71 1016.2
20260508131723 10 238 1.6 6.4 0.00 0.00 0.00 71 1016.2
20260508130946 10 317 0.0 1.6 0.00 0.03 0.00 75 1016.1
20260508130440 10 272 0.0 3.2 0.00 0.03 0.00 76 1016.2
20260508130202 10 287 0.0 3.2 0.00 0.03 0.00 77 1016.3
20260508125648 9 227 0.0 3.2 0.00 0.03 0.00 79 1016.3
20260508124921 9 242 0.0 3.2 0.00 0.03 0.00 79 1016.3
20260508124415 8 325 0.0 3.2 0.00 0.03 0.00 80 1016.2
20260508123910 8 306 1.6 6.4 0.00 0.03 0.00 81 1016.3
20260508123403 8 346 1.6 6.4 0.00 0.03 0.00 84 1016.2
20260508122858 7 38 1.6 4.8 0.00 0.03 0.00 86 1016.1
20260508122351 7 307 0.0 3.2 0.00 0.03 0.00 88 1016.1
20260508121845 7 279 0.0 1.6 0.00 0.03 0.00 89 1016.1
20260508121339 7 286 0.0 3.2 0.00 0.03 0.00 89 1016.0
20260508120833 7 274 0.0 3.2 0.00 0.03 0.00 89 1016.0
20260508120327 6 355 0.0 3.2 0.00 0.03 0.00 90 1016.0
20260508115823 6 355 0.0 0.0 0.00 0.03 0.00 89 1016.0
20260508115318 6 355 0.0 0.0 0.00 0.03 0.00 88 1015.9
20260508114819 6 355 0.0 0.0 0.00 0.03 0.00 88 1015.7
20260508114805 6 355 0.0 0.0 0.00 0.03 0.00 87 1015.7
20260508114302 6 355 0.0 0.0 0.00 0.03 0.00 87 1015.8
20260508113316 6 355 0.0 0.0 0.00 0.03 0.00 86 1015.8
20260508112813 6 355 0.0 0.0 0.00 0.03 0.00 86 1015.7
20260508112313 6 355 0.0 0.0 0.00 0.03 0.00 86 1015.6
20260508111809 6 355 0.0 0.0 0.00 0.03 0.00 86 1015.6
20260508111309 5 355 0.0 0.0 0.00 0.03 0.00 85 1015.5
20260508110806 5 355 0.0 0.0 0.00 0.03 0.00 85 1015.3
20260508110306 5 355 0.0 0.0 0.00 0.03 0.00 85 1015.2
20260508105805 5 355 0.0 0.0 0.00 0.03 0.00 85 1015.2
20260508105306 5 355 0.0 0.0 0.00 0.03 0.00 85 1015.1
20260508104806 5 355 0.0 0.0 0.00 0.03 0.00 84 1014.9
20260508104305 5 355 0.0 0.0 0.00 0.03 0.00 84 1014.9
20260508103806 6 355 0.0 0.0 0.00 0.03 0.00 84 1014.9
20260508103307 6 355 0.0 0.0 0.00 0.03 0.00 83 1014.8
20260508102806 6 355 0.0 0.0 0.00 0.03 0.00 83 1014.7
20260508102307 6 355 0.0 0.0 0.00 0.03 0.00 83 1014.7
20260508101806 6 355 0.0 0.0 0.00 0.03 0.00 82 1014.6
20260508101304 6 355 0.0 0.0 0.00 0.03 0.00 82 1014.4
20260508100806 6 355 0.0 0.0 0.00 0.03 0.00 82 1014.3
20260508100527 6 355 0.0 0.0 0.00 0.03 0.00 81 1014.2
20260508100032 6 355 0.0 0.0 0.00 0.03 0.00 81 1014.1
20260508095306 6 355 0.0 0.0 0.00 0.03 0.00 81 1014.2
20260508094806 6 355 0.0 0.0 0.00 0.03 0.00 81 1014.1
20260508094742 7 355 0.0 0.0 0.00 0.03 0.00 80 1014.0
20260508093805 7 355 0.0 0.0 0.00 0.03 0.00 80 1014.0
20260508093305 7 355 0.0 0.0 0.00 0.03 0.00 80 1014.1
20260508092804 7 355 0.0 0.0 0.00 0.03 0.00 80 1014.1
20260508092313 7 355 0.0 0.0 0.00 0.03 0.00 80 1014.2
20260508091800 7 355 0.0 0.0 0.00 0.03 0.00 80 1014.2
20260508091254 7 355 0.0 0.0 0.00 0.03 0.00 80 1014.2
20260508090748 7 355 0.0 0.0 0.00 0.03 0.00 80 1014.2
20260508090244 7 355 0.0 3.2 0.00 0.03 0.00 80 1014.1
20260508085744 7 355 0.0 3.2 0.00 0.03 0.00 80 1014.0
20260508085244 7 355 0.0 3.2 0.00 0.03 0.00 80 1013.9
20260508084743 7 355 0.0 3.2 0.00 0.03 0.00 80 1013.8
20260508084243 7 0 0.0 3.2 0.00 0.03 0.00 80 1013.8
20260508083742 7 342 0.0 3.2 0.00 0.03 0.00 79 1013.8
20260508083456 8 51 0.0 1.6 0.00 0.03 0.00 79 1013.8
20260508082738 8 55 0.0 1.6 0.00 0.03 0.00 79 1013.8
20260508082435 8 15 0.0 4.8 0.00 0.03 0.00 81 1013.6
20260508082324 8 55 0.0 3.2 0.00 0.03 0.00 80 1013.8
20260508081231 8 65 1.6 4.8 0.00 0.03 0.00 83 1013.6
20260508080952 8 25 1.6 4.8 0.00 0.03 0.00 83 1013.6
20260508080229 8 314 0.0 4.8 0.00 0.03 0.00 83 1013.5
20260508075730 8 20 0.0 4.8 0.00 0.03 0.00 83 1013.6
20260508075228 7 333 0.0 4.8 0.00 0.03 0.00 84 1013.5
20260508074729 7 37 0.0 3.2 0.00 0.03 0.00 85 1013.5
20260508074450 7 64 1.6 6.4 0.00 0.03 0.00 86 1013.5
20260508073727 7 355 1.6 8.0 0.00 0.03 0.00 87 1013.4
20260508073227 7 84 1.6 8.0 0.00 0.03 0.00 89 1013.4
20260508072720 7 90 1.6 6.4 0.00 0.03 0.00 89 1013.2
20260508072213 7 19 1.6 6.4 0.00 0.03 0.00 90 1013.1
20260508071707 7 5 1.6 4.8 0.00 0.03 0.00 90 1013.1
20260508071203 7 23 0.0 4.8 0.00 0.03 0.00 90 1013.0
20260508070655 7 12 0.0 3.2 0.00 0.03 0.00 90 1013.0
20260508070418 7 50 0.0 4.8 0.00 0.03 0.00 90 1012.9
20260508065640 7 13 0.0 4.8 0.00 0.03 0.00 90 1012.9
20260508065136 7 0 0.0 4.8 0.00 0.03 0.00 90 1012.7
20260508064629 8 52 0.0 4.8 0.00 0.03 0.00 90 1012.7
20260508064123 8 355 0.0 1.6 0.00 0.03 0.00 90 1012.6
20260508063617 8 355 0.0 1.6 0.00 0.03 0.00 90 1012.6
20260508063112 8 355 0.0 1.6 0.00 0.03 0.00 90 1012.5
20260508062606 8 240 0.0 0.0 0.00 0.03 0.00 90 1012.5
20260508062100 8 240 0.0 0.0 0.00 0.03 0.00 90 1012.4
20260508061554 8 240 0.0 0.0 0.00 0.03 0.00 90 1012.3
20260508061312 8 240 0.0 0.0 0.00 0.03 0.00 90 1012.3
20260508060542 8 240 0.0 0.0 0.00 0.03 0.00 90 1012.3
20260508060036 8 240 0.0 0.0 0.00 0.03 0.00 90 1012.2
20260508055529 8 240 0.0 0.0 0.00 0.03 0.00 90 1012.3
20260508055023 8 240 0.0 0.0 0.00 0.03 0.00 90 1012.4
20260508054749 8 240 0.0 0.0 0.00 0.03 0.00 90 1012.4
20260508054011 8 240 0.0 1.6 0.00 0.03 0.00 90 1012.4
20260508053504 8 240 0.0 1.6 0.00 0.05 0.00 90 1012.5
20260508053000 8 240 0.0 0.0 0.00 0.05 0.00 90 1012.5
20260508052453 8 240 0.0 0.0 0.00 0.05 0.00 90 1012.4
20260508051947 8 240 0.0 0.0 0.00 0.08 0.00 90 1012.4
20260508051441 8 240 0.0 1.6 0.00 0.13 0.00 89 1012.3
20260508050936 9 240 0.0 1.6 0.00 0.15 0.00 89 1012.2
20260508050430 9 240 0.0 0.0 0.00 0.15 0.00 90 1012.1
20260508045923 9 240 0.0 0.0 0.00 0.15 0.00 90 1012.1
20260508045417 9 240 0.0 0.0 0.00 0.18 0.00 89 1012.0
20260508044911 9 240 0.0 0.0 0.00 0.18 0.00 89 1012.0
20260508044632 9 240 0.0 0.0 0.00 0.18 0.00 89 1012.0
20260508043859 9 240 0.0 0.0 0.00 0.18 0.00 89 1011.9
20260508043353 9 240 0.0 1.6 0.00 0.20 0.00 89 1011.8
20260508042848 9 240 0.0 1.6 0.00 0.25 0.00 89 1011.8
20260508042601 9 263 0.0 0.0 0.00 0.28 0.00 89 1011.7
20260508041835 9 230 0.0 1.6 0.00 0.36 0.00 89 1011.7
20260508041329 9 230 0.0 3.2 0.00 0.58 0.00 89 1011.7
20260508040823 10 252 0.0 1.6 0.00 0.81 0.00 89 1011.7
20260508040317 10 304 0.0 3.2 0.00 0.94 0.00 88 1011.7
20260508035811 10 281 0.0 3.2 0.00 0.94 0.94 88 1011.7
20260508035307 10 207 0.0 1.6 0.00 0.94 0.94 88 1011.6
20260508034800 10 207 0.0 0.0 0.00 0.94 0.94 88 1011.6
20260508034519 10 207 0.0 0.0 0.00 0.94 0.94 88 1011.4
20260508033747 10 207 0.0 0.0 0.00 0.94 0.94 88 1011.4
20260508033241 10 207 0.0 1.6 0.00 0.94 0.94 88 1011.4
20260508032736 10 207 0.0 3.2 0.00 0.94 0.94 88 1011.4
20260508032230 10 211 0.0 1.6 0.00 0.94 0.94 87 1011.4
20260508031955 10 211 0.0 1.6 0.00 0.94 0.94 87 1011.4
20260508031217 10 219 0.0 3.2 0.00 0.94 0.94 87 1011.3
20260508030931 10 219 0.0 3.2 0.00 0.94 0.94 87 1011.3
20260508030205 10 268 0.0 3.2 0.00 0.94 0.94 88 1011.3
20260508025700 10 265 0.0 3.2 0.00 0.94 0.94 87 1011.3
20260508025152 10 209 0.0 3.2 0.00 0.94 0.94 87 1011.3
20260508024647 10 202 0.0 3.2 0.00 0.94 0.94 87 1011.3
20260508024141 10 202 0.0 3.2 0.00 0.94 0.94 87 1011.3
20260508023640 10 203 0.0 3.2 0.00 0.94 0.94 87 1011.3
20260508023126 10 203 0.0 3.2 0.00 0.94 0.94 87 1011.2
20260508022619 10 201 0.0 6.4 0.00 0.94 0.94 86 1011.2
20260508022330 10 271 0.0 6.4 0.00 0.94 0.94 86 1011.2
20260508021607 10 192 0.0 3.2 0.00 0.94 0.94 86 1011.2
20260508021322 10 216 0.0 1.6 0.00 0.94 0.94 85 1011.1
20260508020556 10 252 0.0 0.0 0.00 0.94 0.94 85 1011.0
20260508020525 10 252 0.0 1.6 0.00 0.94 0.94 85 1011.0
20260508015811 10 252 0.0 1.6 0.00 0.94 0.94 84 1011.0
20260508015041 10 252 0.0 1.6 0.00 0.94 0.94 84 1010.9
20260508014531 11 245 0.0 3.2 0.00 0.94 0.94 84 1010.9
20260508014029 11 248 0.0 3.2 0.00 0.94 0.94 83 1010.7
20260508013737 11 217 0.0 4.8 0.00 0.94 0.94 83 1010.8
20260508013008 11 218 0.0 4.8 0.00 0.94 0.94 82 1010.8
20260508012504 11 250 0.0 0.0 0.00 0.94 0.94 82 1010.8
20260508011956 11 250 0.0 0.0 0.00 0.94 0.94 81 1010.7
20260508011450 11 250 0.0 0.0 0.00 0.94 0.94 81 1010.7
20260508010945 11 250 0.0 0.0 0.00 0.94 0.94 80 1010.7
20260508010700 11 250 0.0 0.0 0.00 0.94 0.94 80 1010.6
20260508005934 11 250 0.0 0.0 0.00 0.94 0.94 79 1010.5
20260508005428 11 250 0.0 0.0 0.00 0.94 0.94 79 1010.5
20260508004921 12 250 0.0 0.0 0.00 0.94 0.94 78 1010.4
20260508004415 12 250 0.0 0.0 0.00 0.94 0.94 77 1010.4
20260508003910 12 250 0.0 0.0 0.00 0.94 0.94 76 1010.3
20260508003852 12 250 0.0 0.0 0.00 0.94 0.94 76 1010.2
20260508002858 12 250 0.0 0.0 0.00 0.94 0.94 75 1010.1
20260508002827 12 250 0.0 1.6 0.00 0.94 0.94 74 1010.1
20260508001846 12 250 0.0 1.6 0.00 0.94 0.94 74 1010.1
20260508001607 13 262 0.0 0.0 0.00 0.94 0.94 73 1010.1
20260508000833 13 262 0.0 0.0 0.00 0.94 0.94 73 1010.0
20260508000554 13 262 0.0 0.0 0.00 0.94 0.94 72 1010.0
20260507235827 13 262 0.0 3.2 0.00 0.94 0.94 71 1009.9
20260507235324 13 262 0.0 3.2 0.00 0.94 0.94 71 1009.9
20260507234825 13 238 0.0 3.2 0.00 0.94 0.94 71 1009.8
20260507234325 13 253 0.0 6.4 0.00 0.94 0.94 69 1009.8
20260507233825 13 205 1.6 6.4 0.00 0.94 0.94 70 1009.8
20260507233324 13 157 1.6 4.8 0.00 0.94 0.94 69 1009.7
20260507232821 13 229 1.6 4.8 0.00 0.94 0.94 69 1009.6
20260507232321 14 209 1.6 6.4 0.00 0.94 0.94 69 1009.6
20260507231817 14 198 1.6 6.4 0.00 0.94 0.94 68 1009.6
20260507231807 14 210 1.6 4.8 0.00 0.94 0.94 68 1009.4
20260507230818 14 65 0.0 4.8 0.00 0.94 0.94 68 1009.4
20260507230315 14 126 0.0 6.4 0.00 0.94 0.94 68 1009.3
20260507225814 14 250 1.6 6.4 0.00 0.94 0.94 67 1009.2
20260507225532 15 263 1.6 4.8 0.00 0.94 0.94 67 1009.2
20260507224814 15 250 1.6 6.4 0.00 0.94 0.94 66 1009.2
20260507224315 15 221 1.6 6.4 0.00 0.94 0.94 65 1009.1
20260507223813 15 211 1.6 6.4 0.00 0.94 0.94 65 1009.1
20260507223313 15 109 1.6 8.0 0.00 0.94 0.94 65 1009.1
20260507222811 15 302 1.6 8.0 0.00 0.94 0.94 67 1009.0
20260507222317 15 209 1.6 8.0 0.00 0.94 0.94 66 1009.0
20260507221813 15 130 1.6 4.8 0.00 0.94 0.94 67 1009.0
20260507221312 15 128 1.6 4.8 0.00 0.94 0.94 66 1008.9
20260507220812 15 182 1.6 6.4 0.00 0.94 0.94 65 1009.0
20260507220314 15 211 1.6 6.4 0.00 0.94 0.94 64 1008.9
20260507215813 15 306 1.6 6.4 0.00 0.94 0.94 63 1008.9
20260507215313 15 183 1.6 6.4 0.00 0.94 0.94 64 1008.9
20260507215258 15 113 1.6 6.4 0.00 0.94 0.94 65 1008.8
20260507214312 15 104 1.6 4.8 0.00 0.94 0.94 65 1008.9
20260507213813 15 235 3.2 11.3 0.00 0.94 0.94 66 1008.8
20260507213312 15 249 3.2 11.3 0.00 0.94 0.94 64 1008.9
20260507212814 15 111 1.6 6.4 0.00 0.94 0.94 65 1008.9
20260507212311 15 118 1.6 4.8 0.00 0.94 0.94 63 1008.7
20260507211811 15 178 3.2 4.8 0.00 0.94 0.94 61 1008.9
20260507211312 15 120 1.6 9.7 0.00 0.94 0.94 62 1008.9
20260507210811 15 157 3.2 9.7 0.00 0.94 0.94 61 1008.8
20260507210311 15 113 1.6 9.7 0.00 0.94 0.94 63 1008.8
20260507205813 15 94 1.6 8.0 0.00 0.94 0.94 60 1008.7
20260507205312 15 190 1.6 8.0 0.00 0.94 0.94 60 1008.8
20260507204812 16 136 1.6 4.8 0.00 0.94 0.94 61 1008.7
20260507204311 16 114 1.6 6.4 0.00 0.94 0.94 62 1008.8
20260507203809 15 244 1.6 6.4 0.00 0.94 0.94 60 1009.0
20260507203310 16 246 3.2 6.4 0.00 0.94 0.94 58 1009.1
20260507203026 16 123 3.2 6.4 0.00 0.94 0.94 60 1009.1
20260507202309 16 257 1.6 6.4 0.00 0.94 0.94 60 1009.0
20260507201810 16 307 1.6 6.4 0.00 0.94 0.94 59 1009.0
20260507201310 16 119 1.6 4.8 0.00 0.94 0.94 62 1009.0
20260507201021 15 131 1.6 3.2 0.00 0.94 0.94 59 1009.0